Weather History for Boone, NC

Change the Weather History Date:

Friday, May 10, 2013

  Actual Average (KGEV) Record (KGEV)
Temperature  
Mean Temperature 60 °F -  
Max Temperature 74 °F 67 °F 82 °F (2003)
Min Temperature 45 °F 42 °F 26 °F (1966)
Degree Days  
Heating Degree Days 6    
Growing Degree Days 10 (Base 50)    
Moisture  
Dew Point 52 °F    
Average Humidity 79    
Maximum Humidity 100    
Minimum Humidity 41    
Precipitation  
Precipitation 0.06 in - - ()
Sea Level Pressure  
Sea Level Pressure 30.10 in    
Wind  
Wind Speed 3 mph (SW)    
Max Wind Speed 18 mph    
Max Gust Speed 23 mph    
Visibility 8 miles    
Events Rain , Thunderstorm    
Averages and records for this station are not official NWS values.
T = Trace of Precipitation, MM = Missing Value Source: NWS Daily Summary

Daily Weather History Graph

Daily Weather History Graph

Search for Another Location

Airport:

Trip Planner

Search our weather history database for the weather conditions in past years. The results will help you decide how hot, cold, wet, or windy it might be!

Date:

Astronomy

May. 10, 2013 Rise Set
Actual Time 6:24 AM EDT 8:22 PM EDT
Civil Twilight 5:56 AM EDT 8:50 PM EDT
Nautical Twilight 5:21 AM EDT 9:24 PM EDT
Astronomical Twilight 4:45 AM EDT 10:01 PM EDT
Moon 6:47 AM EDT (5/10) 9:09 PM EDT (5/10)
Length of Visible Light 14h 54m
Length of Day
13h 57m
New Moon, 0% of the Moon is Illuminated
May 10
New Moon
May 18
First Quarter
May 25
Full
May 31
Last Quarter
Jun 8
New

Hourly Weather History & Observations

Time (EDT) Temp. Dew Point Humidity Pressure Visibility Wind Dir Wind Speed Gust Speed Precip Events Conditions
12:35 AM 50.9 °F 49.6 °F 95% 30.17 in 10.0 mi Calm Calm - N/A   Clear
1:15 AM 49.3 °F 49.1 °F 99% 30.18 in 7.0 mi Calm Calm - N/A   Clear
1:55 AM 49.6 °F 49.5 °F 99% 30.17 in 10.0 mi Calm Calm - N/A   Clear
2:15 AM 47.5 °F 47.3 °F 99% 30.16 in 3.0 mi Calm Calm - N/A   Clear
2:35 AM 47.3 °F 47.3 °F 100% 30.16 in 7.0 mi Calm Calm - N/A   Clear
2:55 AM 47.5 °F 47.5 °F 100% 30.16 in 7.0 mi Calm Calm - N/A   Clear
3:15 AM 48.2 °F 48.2 °F 100% 30.15 in 10.0 mi Calm Calm - N/A   Clear
3:35 AM 49.5 °F 49.1 °F 99% 30.15 in 10.0 mi Calm Calm - N/A   Clear
3:55 AM 50.0 °F 49.1 °F 97% 30.15 in 10.0 mi Calm Calm - N/A   Clear
4:15 AM 48.6 °F 48.6 °F 100% 30.15 in 7.0 mi Calm Calm - N/A   Clear
4:35 AM 49.1 °F 48.7 °F 99% 30.14 in 10.0 mi Calm Calm - N/A   Clear
4:55 AM 49.5 °F 48.4 °F 96% 30.14 in 10.0 mi Calm Calm - N/A   Clear
5:15 AM 49.1 °F 48.4 °F 97% 30.14 in 10.0 mi Calm Calm - N/A   Clear
5:35 AM 46.9 °F 46.9 °F 100% 30.14 in 4.0 mi Calm Calm - N/A   Clear
5:55 AM 47.5 °F 47.5 °F 100% 30.14 in 10.0 mi Calm Calm - N/A   Clear
6:15 AM 46.4 °F 46.4 °F 100% 30.14 in 4.0 mi Calm Calm - N/A   Clear
6:35 AM 46.9 °F 46.9 °F 100% 30.14 in 7.0 mi Calm Calm - N/A   Clear
6:55 AM 45.1 °F 45.1 °F 100% 30.14 in 1.8 mi Calm Calm - N/A   Mist
7:15 AM 46.8 °F 46.8 °F 100% 30.14 in 4.0 mi Calm Calm - N/A   Clear
7:35 AM 50.0 °F 49.6 °F 99% 30.14 in 10.0 mi Calm Calm - N/A   Clear
7:55 AM 51.8 °F 49.8 °F 93% 30.14 in 10.0 mi Calm Calm - N/A   Clear
8:15 AM 54.5 °F 51.1 °F 88% 30.14 in 10.0 mi Calm Calm - N/A   Clear
8:35 AM 56.8 °F 52.0 °F 84% 30.12 in 10.0 mi Calm Calm - N/A   Clear
8:55 AM 60.3 °F 54.3 °F 81% 30.12 in 10.0 mi Calm Calm - N/A   Clear
9:15 AM 63.1 °F 55.8 °F 77% 30.13 in 10.0 mi Calm Calm - N/A   Clear
9:35 AM 67.1 °F 49.6 °F 53% 30.12 in 10.0 mi SSW 4.6 mph - N/A   Clear
9:55 AM 67.5 °F 48.4 °F 50% 30.13 in 10.0 mi SW 6.9 mph - N/A   Clear
10:15 AM 69.3 °F 48.2 °F 47% 30.12 in 10.0 mi SSW 5.8 mph - N/A   Clear
10:35 AM 69.8 °F 46.9 °F 44% 30.13 in 10.0 mi West 8.1 mph 17.3 mph N/A   Clear
11:15 AM 70.9 °F 47.7 °F 44% 30.13 in 10.0 mi WSW 5.8 mph 16.1 mph N/A   Clear
11:35 AM 70.7 °F 47.5 °F 44% 30.14 in 10.0 mi SSW 6.9 mph - N/A   Clear
11:55 AM 72.3 °F 49.8 °F 45% 30.13 in 10.0 mi SE 4.6 mph 17.3 mph N/A   Clear
12:15 PM 72.9 °F 49.8 °F 44% 30.12 in 10.0 mi South 10.4 mph 20.7 mph N/A   Clear
12:35 PM 74.3 °F 48.9 °F 41% 30.12 in 10.0 mi SW 13.8 mph 19.6 mph N/A   Clear
12:55 PM 73.6 °F 50.2 °F 44% 30.12 in 10.0 mi SSW 10.4 mph - N/A   Clear
1:15 PM 73.4 °F 49.3 °F 42% 30.11 in 10.0 mi South 5.8 mph 19.6 mph N/A   Clear
1:35 PM 73.8 °F 51.3 °F 45% 30.10 in 10.0 mi SSW 4.6 mph 19.6 mph N/A   Clear
1:55 PM 73.0 °F 51.6 °F 47% 30.10 in 10.0 mi South 5.8 mph 19.6 mph N/A   Clear
2:15 PM 72.9 °F 51.8 °F 47% 30.10 in 10.0 mi South 4.6 mph 16.1 mph N/A   Clear
2:35 PM 72.5 °F 51.4 °F 47% 30.08 in 10.0 mi South 8.1 mph 20.7 mph N/A   Clear
2:55 PM 70.9 °F 53.2 °F 54% 30.08 in 10.0 mi SSE 3.5 mph 9.2 mph N/A   Scattered Clouds
3:15 PM 70.5 °F 53.4 °F 55% 30.08 in 10.0 mi SSW 11.5 mph 19.6 mph N/A   Scattered Clouds
3:35 PM 69.8 °F 52.0 °F 53% 30.07 in 10.0 mi SSW 10.4 mph 19.6 mph N/A   Scattered Clouds
3:55 PM 69.1 °F 52.3 °F 55% 30.06 in 10.0 mi SSW 4.6 mph 18.4 mph N/A   Scattered Clouds
4:15 PM 67.8 °F 53.2 °F 60% 30.06 in 10.0 mi SSW 6.9 mph - N/A   Scattered Clouds
4:35 PM 68.4 °F 52.7 °F 57% 30.06 in 10.0 mi WNW 18.4 mph 23.0 mph N/A   Scattered Clouds
4:55 PM 64.4 °F 55.0 °F 72% 30.06 in 10.0 mi WNW 13.8 mph - N/A   Mostly Cloudy
5:15 PM 63.3 °F 55.2 °F 75% 30.06 in 10.0 mi West 6.9 mph - N/A Thunderstorm Mostly Cloudy
5:35 PM 63.7 °F 54.5 °F 72% 30.06 in 10.0 mi WNW 5.8 mph - N/A   Mostly Cloudy
5:55 PM 63.0 °F 54.9 °F 75% 30.05 in 10.0 mi NW 6.9 mph - N/A   Mostly Cloudy
6:15 PM 62.8 °F 55.2 °F 76% 30.06 in 10.0 mi West 15.0 mph 20.7 mph N/A Thunderstorm Thunderstorm
6:35 PM 62.4 °F 54.7 °F 76% 30.06 in 10.0 mi West 10.4 mph - N/A Thunderstorm Mostly Cloudy
6:55 PM 61.7 °F 56.7 °F 84% 30.07 in 10.0 mi West 13.8 mph 17.3 mph N/A Rain , Thunderstorm Light Thunderstorms and Rain
7:15 PM 61.0 °F 57.9 °F 90% 30.06 in 7.0 mi WNW 9.2 mph - N/A Rain , Thunderstorm Rain
7:35 PM 60.3 °F 58.8 °F 95% 30.06 in 5.0 mi West 5.8 mph - 0.03 in Rain Rain
7:55 PM 59.5 °F 59.2 °F 99% 30.06 in 5.0 mi North 5.8 mph - 0.06 in Rain Light Rain
8:15 PM 58.6 °F 58.5 °F 99% 30.05 in 7.0 mi Calm Calm - N/A   Scattered Clouds
8:35 PM 58.5 °F 58.5 °F 100% 30.06 in 7.0 mi Calm Calm - N/A   Clear
8:55 PM 58.1 °F 58.1 °F 100% 30.06 in 2.0 mi Calm Calm - N/A   Clear
9:15 PM 58.5 °F 58.5 °F 100% 30.05 in 3.0 mi Calm Calm - N/A   Clear
9:35 PM 58.1 °F 58.1 °F 100% 30.05 in 2.5 mi Calm Calm - N/A   Clear
9:55 PM 58.5 °F 58.5 °F 100% 30.05 in 7.0 mi WNW 5.8 mph - N/A   Clear
10:15 PM 58.3 °F 58.3 °F 100% 30.05 in 4.0 mi South 3.5 mph - N/A   Clear
10:35 PM 60.6 °F 58.1 °F 91% 30.06 in 10.0 mi Calm Calm - N/A   Clear
10:55 PM 60.4 °F 57.9 °F 91% 30.05 in 10.0 mi Calm Calm - N/A   Clear
11:15 PM 60.8 °F 57.7 °F 90% 30.05 in 10.0 mi Calm Calm - N/A   Clear
11:35 PM 59.0 °F 58.1 °F 97% 30.05 in 10.0 mi SW 3.5 mph - N/A   Clear
11:55 PM 59.0 °F 57.6 °F 95% 30.05 in 10.0 mi Calm Calm - N/A   Clear